COSMOS 2491 DEB, 44992

Orbit data source: Space-Track

COSMOS 2491 DEB, 44992 is space debris in LEO originally from a launch on Wed, 25 Dec 2013 UTC launched from the Plesetsk Missile And Space Complex (PKMTR). Debris objects in space refer to the collection of defunct objects orbiting the Earth. Examples of debris include non-operational satellites, rocket bodies, and fragments generated from explosions, collisions, or faulty payload assembly.

Loading next visibility...
Identifier
44992, 2013-076N
Orbit
LEO
Country
Flag of CISCIS
Related business
Manufacturer
TsNIIKhM
Mission
Spacecraft
Bus & Motor
Unknown
Mass
Unknown
Launch date (UTC)
2013-12-25 (12 years ago)
Launch vehicle
Unknown
Launch site
Plesetsk Missile And Space Complex (PKMTR)
Object type
Payload
Rocket body
Debris
Shape & HBR
Unknown shape, 0.1 m
Radar Cross Section
Small (<0.1 m²)

Expand to show TLE details & history
Last TLE update: 1 day ago

TLE from 1 day ago
0 COSMOS 2491 DEB
1 44992U 13076N   25312.67918727  .00004121  00000-0  24639-1 0  9998
2 44992  82.4780 289.5593 0107240  22.4254 338.1469 12.55443307266139
Epoch: 2025-11-08T16:18Z
TLE epoch observation values (Epoch: 2025-11-08T16:18:01.780Z)
Latitude
-0.00006°
Longitude
-3.05346°
Altitude
1,366.805 km
Speed
7.211 km/s
True Right ascension
19h 18m 14s
True Declination
0° 00' 00"
Sunlit
Object was in daylight at epoch
Visualization orbit readout
Latitude
Unknown
Longitude
Unknown
Altitude
Unknown
Speed
Unknown
Apparent Right ascension
Unknown
Apparent Declination
Unknown
Sunlit
N/A
Visualization observer readout
Local Sidereal Time
18:41:51
Azimuth
Unknown
Elevation
Unknown
Doppler factor
Unknown
Orbital elements
Apogee altitude
1,522.976 km
Perigee altitude
1,355.311 km
Semi-major axis
7,817.28 km
Eccentricity
0.01072
Inclination
82.478°
RAAN
289.5593°
Arg. of periapsis
22.4254°
True anomaly
337.68372°
Mean anomaly
338.1469°
Eccentric anomaly
337.91589°
Mean motion
3.14022 °/min
Orbital period
114.64 mins
BSTAR
0.024639
Loading maneuver chart data...
Computing Atmospheric mass density...
Loading historical data...
Loading historical data...
Loading historical data...
Loading historical data...
Loading historical data...
Loading historical data...
Loading historical data...

Documentation

Showing up to 5 results
|